BCS169 EDDK-EDDP

Flight info

Callsign BCS169
Flight time 0h 47m
Altitude 23000
Route PODIP1R/31R PODIP Y867 ROSUX Z858 BERDI T958 KOJEC KOJEC1V
Aircraft A333/H-SDE3GHIJ2J3J5M1RVWXY/LB2D1

Departure

Time 2026-04-24 18:56
Airport Cologne Bonn Airport (EDDK)

Arrival

Time 2026-04-24 19:43
Airport Leipzig/Halle Airport (EDDP)
Time Latitude Longitude Altitude Speed Heading
2026-04-24 18:54 50.85665 7.16291 275 ft 12 kts 19°
2026-04-24 18:55 50.85891 7.16030 273 ft 60 kts 317°
2026-04-24 18:55 50.86366 7.15344 265 ft 123 kts 318°
2026-04-24 18:55 50.87136 7.14232 319 ft 172 kts 318°
2026-04-24 18:56 50.88070 7.12893 861 ft 188 kts 318°
2026-04-24 18:56 50.89090 7.11499 1730 ft 196 kts 326°
2026-04-24 18:56 50.90320 7.10718 2767 ft 190 kts 352°
2026-04-24 18:56 50.91626 7.11107 3574 ft 197 kts 26°
2026-04-24 18:57 50.92767 7.12375 4329 ft 205 kts 44°
2026-04-24 18:57 50.93668 7.14175 5106 ft 211 kts 58°
2026-04-24 18:57 50.94273 7.16288 5968 ft 213 kts 63°
2026-04-24 18:57 50.94869 7.18444 6806 ft 214 kts 64°
2026-04-24 18:58 50.95443 7.20627 7635 ft 215 kts 64°
2026-04-24 18:58 50.96057 7.22786 8446 ft 216 kts 60°
2026-04-24 18:58 50.96801 7.24934 9087 ft 227 kts 58°
2026-04-24 18:58 50.97574 7.27135 9720 ft 234 kts 59°
2026-04-24 18:59 50.98354 7.29441 10382 ft 239 kts 60°
2026-04-24 18:59 50.99132 7.31812 10978 ft 246 kts 61°
2026-04-24 18:59 50.99942 7.34326 11296 ft 264 kts 61°
2026-04-24 18:59 51.00803 7.37030 11550 ft 285 kts 62°
2026-04-24 19:00 51.01539 7.40051 11784 ft 310 kts 75°
2026-04-24 19:00 51.01707 7.43580 12078 ft 334 kts 95°
2026-04-24 19:00 51.01185 7.47302 12404 ft 354 kts 105°
2026-04-24 19:00 51.00430 7.51122 12940 ft 366 kts 107°
2026-04-24 19:01 50.99650 7.54950 13632 ft 372 kts 107°
2026-04-24 19:01 50.98854 7.58893 14309 ft 378 kts 107°
2026-04-24 19:01 50.98052 7.62907 14922 ft 384 kts 107°
2026-04-24 19:01 50.97254 7.66920 15570 ft 389 kts 107°
2026-04-24 19:02 50.96709 7.69670 16023 ft 392 kts 108°
2026-04-24 19:02 50.95619 7.75239 16886 ft 398 kts 105°
2026-04-24 19:02 50.95153 7.79599 17526 ft 404 kts 92°
2026-04-24 19:02 50.95456 7.84046 18156 ft 408 kts 74°
2026-04-24 19:03 50.96479 7.88205 18723 ft 412 kts 64°
2026-04-24 19:03 50.97813 7.92260 19264 ft 416 kts 59°
2026-04-24 19:03 50.99296 7.96238 19807 ft 419 kts 57°
2026-04-24 19:03 51.00841 8.00206 20349 ft 423 kts 57°
2026-04-24 19:04 51.02400 8.04200 20879 ft 427 kts 57°
2026-04-24 19:04 51.03944 8.08213 21403 ft 431 kts 57°
2026-04-24 19:04 51.05493 8.12315 21946 ft 435 kts 57°
2026-04-24 19:04 51.07045 8.16489 22429 ft 439 kts 57°
2026-04-24 19:05 51.08598 8.20711 22922 ft 443 kts 58°
2026-04-24 19:05 51.10152 8.24967 23164 ft 448 kts 58°
2026-04-24 19:05 51.11711 8.29257 23187 ft 458 kts 58°
2026-04-24 19:05 51.13311 8.33677 23187 ft 461 kts 58°
2026-04-24 19:06 51.14917 8.38124 23177 ft 461 kts 58°
2026-04-24 19:06 51.16521 8.42575 23179 ft 461 kts 58°
2026-04-24 19:06 51.18119 8.47015 23178 ft 461 kts 58°
2026-04-24 19:06 51.19776 8.51404 23175 ft 460 kts 52°
2026-04-24 19:07 51.21669 8.55420 23176 ft 459 kts 50°
2026-04-24 19:07 51.23657 8.59405 23175 ft 458 kts 48°
2026-04-24 19:07 51.24999 8.62011 23171 ft 458 kts 47°
2026-04-24 19:07 51.27730 8.67214 23172 ft 456 kts 47°
2026-04-24 19:08 51.29780 8.71089 23168 ft 457 kts 47°
2026-04-24 19:08 51.31839 8.74987 23168 ft 457 kts 47°
2026-04-24 19:08 51.33862 8.78831 23171 ft 457 kts 47°
2026-04-24 19:08 51.35898 8.82737 23167 ft 457 kts 49°
2026-04-24 19:09 51.37649 8.87018 23171 ft 461 kts 60°
2026-04-24 19:09 51.38801 8.91820 23166 ft 464 kts 75°
2026-04-24 19:09 51.39177 8.96944 23166 ft 465 kts 90°
2026-04-24 19:09 51.39045 9.02109 23161 ft 466 kts 94°
2026-04-24 19:10 51.38885 9.07298 23155 ft 466 kts 89°
2026-04-24 19:10 51.38872 9.12423 23156 ft 466 kts 89°
2026-04-24 19:10 51.38904 9.17641 23156 ft 466 kts 88°
2026-04-24 19:10 51.38988 9.22835 23157 ft 466 kts 88°
2026-04-24 19:11 51.39108 9.28051 23156 ft 466 kts 87°
2026-04-24 19:11 51.39247 9.33180 23157 ft 466 kts 86°
2026-04-24 19:11 51.39397 9.38371 23159 ft 466 kts 86°
2026-04-24 19:11 51.39548 9.43559 23156 ft 466 kts 86°
2026-04-24 19:12 51.39695 9.48754 23155 ft 466 kts 86°
2026-04-24 19:12 51.39838 9.53945 23157 ft 466 kts 87°
2026-04-24 19:12 51.39977 9.59136 23158 ft 466 kts 87°
2026-04-24 19:12 51.40112 9.64336 23156 ft 466 kts 86°
2026-04-24 19:13 51.40200 9.67772 23158 ft 466 kts 86°
2026-04-24 19:13 51.40372 9.74668 23174 ft 466 kts 87°
2026-04-24 19:13 51.40499 9.79857 23158 ft 466 kts 87°
2026-04-24 19:13 51.40624 9.85052 23152 ft 466 kts 87°
2026-04-24 19:14 51.40747 9.90248 23169 ft 465 kts 87°
2026-04-24 19:14 51.40866 9.95317 22961 ft 455 kts 87°
2026-04-24 19:14 51.40980 10.00355 22697 ft 448 kts 87°
2026-04-24 19:14 51.41092 10.05329 22430 ft 446 kts 87°
2026-04-24 19:15 51.41202 10.10297 22167 ft 445 kts 87°
2026-04-24 19:15 51.41309 10.15249 21837 ft 443 kts 86°
2026-04-24 19:15 51.41412 10.20111 21576 ft 441 kts 86°
2026-04-24 19:15 51.41514 10.25025 21318 ft 439 kts 87°
2026-04-24 19:16 51.41712 10.34808 20585 ft 436 kts 87°
2026-04-24 19:16 51.41805 10.39583 20209 ft 433 kts 87°
2026-04-24 19:16 51.41898 10.44409 19844 ft 431 kts 87°
2026-04-24 19:17 51.41993 10.49198 19468 ft 428 kts 85°
2026-04-24 19:17 51.42323 10.53932 18998 ft 425 kts 81°
2026-04-24 19:17 51.42735 10.58567 18537 ft 422 kts 80°
2026-04-24 19:17 51.43170 10.63204 18022 ft 419 kts 79°
2026-04-24 19:18 51.43608 10.67804 17517 ft 414 kts 79°
2026-04-24 19:18 51.44040 10.72334 17235 ft 407 kts 79°
2026-04-24 19:18 51.44468 10.76809 16976 ft 406 kts 79°
2026-04-24 19:18 51.44889 10.81225 16723 ft 404 kts 79°
2026-04-24 19:19 51.45312 10.85674 16307 ft 402 kts 79°
2026-04-24 19:19 51.45731 10.90096 15813 ft 399 kts 79°
2026-04-24 19:19 51.46145 10.94490 15319 ft 395 kts 79°
2026-04-24 19:19 51.46552 10.98828 14841 ft 390 kts 79°
2026-04-24 19:20 51.46952 11.03106 14364 ft 386 kts 79°
2026-04-24 19:20 51.47347 11.07347 13879 ft 381 kts 79°
2026-04-24 19:20 51.47730 11.11474 13373 ft 377 kts 79°
2026-04-24 19:20 51.48114 11.15625 12855 ft 373 kts 78°
2026-04-24 19:21 51.48493 11.19740 12351 ft 371 kts 78°
2026-04-24 19:21 51.48868 11.23828 11850 ft 367 kts 78°
2026-04-24 19:21 51.49232 11.27820 11382 ft 363 kts 78°
2026-04-24 19:21 51.49594 11.31812 11164 ft 359 kts 78°
2026-04-24 19:22 51.49832 11.34439 11135 ft 359 kts 78°
2026-04-24 19:22 51.50314 11.39756 11129 ft 360 kts 78°
2026-04-24 19:22 51.50674 11.43747 11130 ft 360 kts 78°
2026-04-24 19:22 51.51027 11.47675 11127 ft 356 kts 78°
2026-04-24 19:23 51.51322 11.51518 11102 ft 338 kts 81°
2026-04-24 19:23 51.51530 11.55228 10907 ft 327 kts 81°
2026-04-24 19:23 51.51715 11.58812 10648 ft 317 kts 81°
2026-04-24 19:23 51.51889 11.62247 10360 ft 300 kts 81°
2026-04-24 19:24 51.51998 11.64426 10167 ft 292 kts 80°
2026-04-24 19:24 51.52219 11.68703 9768 ft 289 kts 80°
2026-04-24 19:24 51.52385 11.71904 9457 ft 286 kts 80°
2026-04-24 19:24 51.52493 11.74010 9249 ft 284 kts 80°
2026-04-24 19:25 51.52654 11.77170 8932 ft 283 kts 81°
2026-04-24 19:25 51.52814 11.80319 8633 ft 282 kts 81°
2026-04-24 19:25 51.52976 11.83504 8335 ft 288 kts 81°
2026-04-24 19:25 51.53137 11.86708 8035 ft 287 kts 81°
2026-04-24 19:26 51.53295 11.89889 7745 ft 284 kts 81°
2026-04-24 19:26 51.53448 11.93012 7444 ft 282 kts 81°
2026-04-24 19:26 51.53603 11.96173 7148 ft 281 kts 81°
2026-04-24 19:26 51.53755 11.99305 6849 ft 280 kts 81°
2026-04-24 19:27 51.53905 12.02382 6571 ft 279 kts 82°
2026-04-24 19:27 51.54054 12.05488 6311 ft 277 kts 82°
2026-04-24 19:27 51.54203 12.08585 6102 ft 277 kts 82°
2026-04-24 19:27 51.54350 12.11673 5907 ft 277 kts 82°
2026-04-24 19:28 51.54498 12.14766 5699 ft 278 kts 82°
2026-04-24 19:28 51.54643 12.17835 5500 ft 279 kts 82°
2026-04-24 19:28 51.54790 12.20964 5293 ft 274 kts 82°
2026-04-24 19:28 51.54928 12.23957 5090 ft 268 kts 82°
2026-04-24 19:29 51.55192 12.29723 4989 ft 251 kts 82°
2026-04-24 19:29 51.55322 12.32527 4992 ft 251 kts 82°
2026-04-24 19:29 51.55450 12.35321 4992 ft 251 kts 82°
2026-04-24 19:30 51.55576 12.38090 4988 ft 251 kts 82°
2026-04-24 19:30 51.55704 12.40902 4992 ft 252 kts 82°
2026-04-24 19:30 51.55830 12.43710 4991 ft 252 kts 82°
2026-04-24 19:30 51.55956 12.46520 4990 ft 251 kts 82°
2026-04-24 19:31 51.56080 12.49293 4989 ft 252 kts 83°
2026-04-24 19:31 51.56204 12.52099 4989 ft 252 kts 83°
2026-04-24 19:31 51.56327 12.54908 4989 ft 252 kts 82°
2026-04-24 19:31 51.56450 12.57716 4988 ft 252 kts 82°
2026-04-24 19:32 51.56572 12.60520 4991 ft 252 kts 83°
2026-04-24 19:32 51.56694 12.63332 4985 ft 252 kts 83°
2026-04-24 19:32 51.56815 12.66145 4982 ft 252 kts 83°
2026-04-24 19:32 51.56934 12.68928 4982 ft 252 kts 83°
2026-04-24 19:33 51.57053 12.71741 4978 ft 252 kts 83°
2026-04-24 19:33 51.57044 12.74573 4976 ft 252 kts 97°
2026-04-24 19:33 51.56482 12.77128 4964 ft 241 kts 123°
2026-04-24 19:33 51.55304 12.78925 4972 ft 232 kts 155°
2026-04-24 19:34 51.53812 12.79475 4988 ft 211 kts 188°
2026-04-24 19:34 51.52478 12.78830 4983 ft 195 kts 217°
2026-04-24 19:34 51.51479 12.77428 4982 ft 188 kts 237°
2026-04-24 19:34 51.50741 12.75709 4957 ft 186 kts 243°
2026-04-24 19:35 51.50066 12.73969 4703 ft 186 kts 243°
2026-04-24 19:35 51.49371 12.72219 4463 ft 185 kts 242°
2026-04-24 19:35 51.48664 12.70497 4276 ft 183 kts 241°
2026-04-24 19:35 51.47955 12.68803 4067 ft 182 kts 241°
2026-04-24 19:36 51.47243 12.67125 3877 ft 181 kts 240°
2026-04-24 19:36 51.46533 12.65465 3654 ft 180 kts 240°
2026-04-24 19:36 51.45825 12.63814 3465 ft 179 kts 240°
2026-04-24 19:36 51.45130 12.62199 3260 ft 178 kts 239°
2026-04-24 19:37 51.44424 12.60563 3055 ft 178 kts 240°
2026-04-24 19:37 51.43728 12.58954 2984 ft 170 kts 240°
2026-04-24 19:37 51.43102 12.57436 2988 ft 157 kts 246°
2026-04-24 19:37 51.42838 12.55793 2992 ft 151 kts 268°
2026-04-24 19:38 51.42760 12.54135 2992 ft 150 kts 269°
2026-04-24 19:38 51.42685 12.52461 2990 ft 149 kts 269°
2026-04-24 19:38 51.42606 12.50878 2966 ft 135 kts 269°
2026-04-24 19:38 51.42527 12.49422 2982 ft 132 kts 269°
2026-04-24 19:39 51.42451 12.47962 2991 ft 131 kts 269°
2026-04-24 19:39 51.42379 12.46505 2989 ft 130 kts 269°
2026-04-24 19:39 51.42311 12.45027 3005 ft 136 kts 270°
2026-04-24 19:39 51.42244 12.43520 2801 ft 133 kts 270°
2026-04-24 19:40 51.42176 12.42105 2569 ft 124 kts 270°
2026-04-24 19:40 51.42111 12.40741 2409 ft 122 kts 270°
2026-04-24 19:40 51.42048 12.39380 2244 ft 123 kts 271°
2026-04-24 19:40 51.41986 12.38030 2074 ft 123 kts 271°
2026-04-24 19:41 51.41920 12.36663 1905 ft 123 kts 271°
2026-04-24 19:41 51.41841 12.35298 1757 ft 123 kts 270°
2026-04-24 19:41 51.41774 12.33930 1606 ft 122 kts 272°
2026-04-24 19:41 51.41720 12.32557 1441 ft 124 kts 270°
2026-04-24 19:42 51.41665 12.31157 1175 ft 125 kts 269°
2026-04-24 19:42 51.41596 12.29769 984 ft 128 kts 265°
2026-04-24 19:42 51.41527 12.28337 850 ft 130 kts 268°
2026-04-24 19:42 51.41468 12.26890 682 ft 130 kts 266°
2026-04-24 19:43 51.41397 12.25441 515 ft 130 kts 265°
2026-04-24 19:43 51.41332 12.24071 467 ft 105 kts 266°
2026-04-24 19:43 51.41291 12.23230 469 ft 47 kts 265°
2026-04-24 19:43 51.41259 12.22805 465 ft 37 kts 254°
2026-04-24 19:44 51.41163 12.22514 461 ft 20 kts 237°
2026-04-24 19:44 51.41144 12.22465 461 ft 0 kts 237°
2026-04-24 19:45 51.41141 12.22458 460 ft 5 kts 237°
2026-04-24 19:45 51.41109 12.22415 460 ft 3 kts 188°
2026-04-24 19:45 51.41099 12.22428 460 ft 2 kts 127°
2026-04-24 19:46 51.41088 12.22525 460 ft 10 kts 93°
2026-04-24 19:46 51.41092 12.22636 462 ft 10 kts 86°
2026-04-24 19:46 51.41097 12.22751 463 ft 11 kts 86°
2026-04-24 19:46 51.41101 12.22866 465 ft 10 kts 86°
2026-04-24 19:47 51.41106 12.22973 468 ft 9 kts 86°
2026-04-24 19:47 51.41110 12.23076 470 ft 9 kts 86°
2026-04-24 19:47 51.41118 12.23233 466 ft 19 kts 85°
2026-04-24 19:47 51.41129 12.23437 474 ft 18 kts 86°
2026-04-24 19:48 51.41138 12.23648 470 ft 20 kts 86°
2026-04-24 19:48 51.41148 12.23882 467 ft 21 kts 86°
2026-04-24 19:48 51.41168 12.24328 469 ft 17 kts 86°
2026-04-24 19:49 51.41139 12.24577 466 ft 9 kts 154°
2026-04-24 19:49 51.41029 12.24655 469 ft 7 kts 155°
2026-04-24 19:50 51.41008 12.24817 473 ft 0 kts 85°